Wind_Speed
25 17 17 18 14 15 16 10 7 5 3 2 3 4 4 6 7 5 3 1 3 4 4 4 6 9 11 11 11 10 9 8 8 10 13 12 14 14 12 11 12 16 12
21 19 19 16 17 19 18 15 14 13 12 10 10 8 9 8 5 5 5 4 5 7 7 5 7 9 9 11 12 13 12 10 9 9 9 10 8 9 12 9 11 10 10
22 21 19 19 21 22 20 20 18 16 15 15 15 16 15 13 10 9 7 5 7 10 7 8 10 10 11 13 15 16 16 16 15 16 13 11 10 7 7 9 4 6 6
24 22 18 22 24 22 22 21 20 19 18 17 16 16 14 11 8 9 8 7 6 8 8 8 7 7 8 9 11 15 20 20 21 21 19 16 16 12 11 11 9 9 7
25 23 18 24 26 22 20 21 19 18 15 12 11 10 12 12 10 6 3 3 6 9 15 18 18 14 15 14 12 12 14 19 21 21 17 18 19 19 18 13 11 14 10
25 23 20 25 27 26 20 19 15 13 12 10 10 14 21 21 22 22 21 20 22 22 20 16 14 15 18 20 19 14 12 16 19 20 21 21 20 20 19 19 12 13 10
25 26 22 24 26 23 21 19 16 17 19 21 30 37 33 32 30 28 25 26 26 20 19 17 20 24 24 22 27 24 15 12 8 13 22 23 21 20 18 16 15 13 12
25 27 25 22 26 22 20 21 23 29 33 39 44 41 38 33 33 29 28 22 19 18 21 23 20 20 21 24 32 34 24 16 10 3 8 19 27 25 21 14 11 12 10
26 23 24 21 25 22 21 23 28 38 45 46 40 34 37 34 29 30 34 35 34 33 28 23 23 22 23 28 33 39 34 25 22 12 5 7 12 15 18 19 15 13 10
27 25 23 20 24 24 25 27 37 49 44 42 36 31 31 31 34 33 28 27 26 32 32 29 30 27 27 29 32 40 38 27 27 25 17 12 11 8 7 10 13 10 10
27 22 25 19 22 26 30 36 49 44 42 42 39 35 32 28 28 30 30 32 32 32 35 35 35 32 31 28 30 39 47 34 24 26 26 22 16 11 9 8 9 10 10
26 23 24 20 21 28 36 43 46 36 34 34 37 36 34 31 30 28 31 31 33 34 36 36 38 34 30 29 29 33 39 46 32 28 27 26 26 22 18 15 14 15 17
23 23 22 19 21 24 36 40 36 30 27 31 31 34 33 30 28 28 29 29 32 32 32 35 38 38 33 32 27 29 30 38 42 32 27 26 25 21 18 18 19 22 21
20 21 20 17 20 25 34 36 33 28 29 29 28 31 30 27 26 26 28 29 32 33 32 34 37 38 36 35 31 27 27 31 35 37 34 27 23 21 22 22 23 24 20
17 16 18 15 22 28 33 31 30 25 23 25 25 26 28 26 25 26 27 29 31 32 30 33 36 37 33 33 34 32 28 26 28 30 31 32 33 32 28 28 27 27 27
14 13 16 12 23 26 30 27 23 21 21 22 21 20 24 23 23 25 27 28 30 31 32 32 34 37 33 32 32 34 29 28 23 23 24 26 27 31 28 28 29 30 28
11 9 12 10 20 22 27 24 17 21 18 17 16 16 21 22 24 26 25 25 28 30 31 30 31 35 36 32 32 33 30 26 22 20 19 20 21 25 28 26 22 22 21
11 6 7 8 14 18 24 21 14 17 16 13 14 12 19 19 23 23 23 22 25 28 28 30 31 32 35 34 35 35 31 27 20 18 16 15 17 20 20 21 19 18 15
12 3 2 5 9 18 20 17 14 13 15 12 9 6 15 18 19 20 19 20 24 26 30 28 31 29 33 35 35 33 32 27 21 16 14 12 12 14 17 16 16 15 14
13 5 3 4 5 12 15 14 15 14 11 9 5 7 11 14 16 15 16 18 21 22 27 26 29 31 31 34 33 31 32 32 26 14 10 7 9 9 9 10 11 11 11
12 9 5 6 5 9 14 14 15 16 13 8 5 6 9 11 10 12 14 14 19 20 22 24 25 28 26 29 31 32 33 35 33 26 14 6 4 4 5 4 5 5 4
14 12 5 10 10 9 11 14 14 14 11 9 6 11 8 8 7 8 11 13 15 18 21 24 23 25 27 26 30 31 32 34 35 33 25 16 10 5 3 2 2 3 3
12 13 8 11 14 14 13 14 15 14 12 11 9 9 10 7 5 5 7 10 12 13 18 21 21 21 25 26 27 29 32 33 34 35 29 22 19 17 12 8 5 11 13
22 13 10 11 16 19 18 18 14 14 14 11 10 8 7 7 4 2 2 6 9 11 15 18 20 20 22 26 25 26 29 32 33 33 33 31 24 19 19 17 15 9 10
24 13 9 12 18 18 20 18 16 17 16 12 11 10 10 8 5 3 1 3 7 9 11 15 16 19 19 22 25 26 27 28 30 32 32 32 30 31 28 25 21 23 19
16 12 11 13 18 22 20 22 17 16 14 14 13 11 10 8 6 6 5 1 3 5 8 10 12 15 17 18 21 25 26 26 26 29 32 32 32 31 30 28 30 29 25
Wind_Direction
13 26 9 355 11 17 37 57 69 83 92 59 48 42 8 25 36 38 37 19 334 344 332 339 347 341 336 332 327 321 309 279 258 256 255 269 268 264 258 265 250 277 266
32 28 12 14 20 26 41 60 68 70 75 75 77 81 83 81 65 27 19 18 11 338 321 317 344 325 312 311 301 300 295 287 263 255 257 256 266 264 250 258 265 253 251
28 25 18 29 39 39 47 57 64 68 70 75 77 69 60 49 45 35 28 9 347 332 315 322 331 327 312 308 315 301 284 273 263 256 253 256 250 241 223 226 224 210 195
26 24 27 36 45 43 52 61 66 72 77 76 74 65 48 39 33 19 19 27 24 31 36 34 28 30 12 344 313 297 290 284 276 266 258 246 240 240 236 239 230 216 236
30 27 36 45 53 51 60 63 66 73 77 78 82 67 68 61 59 65 97 117 78 68 93 86 78 61 46 26 6 336 303 282 271 264 253 245 246 243 234 234 229 233 248
38 32 39 52 60 60 68 64 63 75 81 78 71 79 91 87 87 77 83 99 100 92 79 79 72 47 41 32 18 350 332 309 278 266 252 241 242 241 238 236 224 229 231
40 39 41 57 63 64 68 70 68 71 84 91 99 101 99 96 89 87 95 96 101 89 74 69 56 46 30 28 27 20 352 352 302 261 243 235 232 232 233 240 237 237 239
40 41 46 59 62 65 66 67 75 85 95 100 107 98 92 92 85 85 85 87 77 69 77 68 54 41 35 38 35 38 32 34 37 348 235 229 230 228 226 224 216 224 226
32 30 44 65 65 64 63 78 89 100 106 107 101 102 88 88 91 82 81 74 69 66 67 56 44 44 46 42 38 40 40 47 50 55 104 191 214 223 226 224 215 220 242
34 35 50 70 67 71 81 89 99 108 96 93 101 94 88 85 84 77 77 63 62 59 59 51 45 42 44 41 41 41 48 51 54 61 75 100 117 133 160 190 207 221 224
27 37 47 71 72 87 93 103 112 104 93 88 88 88 81 81 76 71 74 68 65 56 52 45 41 43 39 41 41 48 48 54 58 59 69 84 102 117 128 134 141 147 149
22 31 43 68 85 104 106 112 118 105 92 93 83 81 77 75 76 72 70 67 63 54 48 41 40 40 41 45 46 50 52 51 58 63 67 79 86 90 101 116 127 128 131
18 27 41 71 95 113 118 119 114 106 97 94 87 75 70 72 76 72 69 64 59 53 50 43 40 40 43 42 50 51 51 56 56 64 72 77 82 87 91 105 126 127 113
13 22 36 73 108 118 127 120 120 114 107 98 88 78 70 71 73 72 68 66 60 51 46 43 42 43 47 46 44 54 48 55 59 57 63 76 81 79 82 94 107 119 111
12 18 40 75 120 126 133 125 121 118 106 96 92 78 67 75 71 74 72 66 59 50 46 44 43 43 45 43 41 45 50 50 55 62 63 67 72 72 79 87 94 103 107
16 21 43 85 131 132 136 135 127 127 113 100 89 77 66 75 76 77 72 65 55 47 48 42 43 42 41 39 39 41 45 52 55 58 63 68 69 69 74 82 89 96 103
14 22 46 86 134 140 146 140 125 126 121 104 92 77 67 69 76 79 72 60 54 46 47 45 44 42 38 38 38 38 40 48 55 60 58 64 74 70 73 84 93 97 102
4 15 47 76 130 151 148 153 134 127 121 106 94 79 63 74 83 85 75 61 50 42 46 48 44 42 42 40 37 37 37 44 54 57 71 69 74 74 71 74 82 95 104
360 6 30 82 138 151 163 158 156 137 135 115 96 68 51 75 77 83 75 58 48 38 40 43 44 44 45 42 37 36 40 41 49 50 58 72 75 74 68 71 80 90 95
2 328 210 152 139 159 164 168 162 155 137 140 106 75 67 90 82 80 67 52 46 40 42 38 40 41 42 42 40 38 41 43 47 50 57 66 89 93 82 62 79 92 94
358 347 243 190 178 178 170 170 164 175 154 157 164 96 93 95 95 83 69 53 43 42 48 46 44 43 44 43 42 39 39 42 46 50 48 44 66 71 83 70 66 76 92
353 348 251 222 190 187 188 189 182 186 179 183 167 122 125 116 110 76 57 50 43 35 40 45 46 42 40 41 42 42 41 41 43 50 53 58 55 34 7 324 296 247 215
326 327 314 230 206 200 199 185 179 182 185 177 154 143 149 129 124 87 60 45 41 37 40 47 48 47 42 42 43 41 43 44 43 47 54 61 67 65 57 33 322 262 256
297 291 309 230 216 207 210 210 205 197 199 197 181 180 166 156 155 117 66 51 31 34 37 41 43 48 46 43 43 43 41 43 42 45 49 58 63 63 62 50 37 10 272
282 264 269 243 227 219 216 216 215 215 211 216 205 199 210 210 210 159 170 72 33 24 24 32 36 43 44 45 43 44 40 40 43 44 47 49 52 55 57 52 45 40 38
262 248 264 254 225 227 216 217 219 219 207 204 202 201 210 205 202 210 228 99 37 2 14 16 26 36 40 42 41 43 43 43 40 45 45 49 48 48 51 49 46 45 44
Height
10938 10936 10934 10931 10926 10922 10920 10919 10919 10918 10920 10921 10922 10923 10924 10925 10926 10927 10928 10928 10928 10927 10927 10928 10926 10924 10922 10920 10919 10918 10916 10915 10915 10916 10917 10917 10918 10919 10920 10921 10923 10924 10924
10939 10936 10934 10931 10927 10923 10920 10920 10919 10919 10921 10923 10924 10926 10927 10928 10928 10928 10928 10928 10928 10929 10928 10927 10927 10926 10923 10922 10920 10918 10917 10915 10915 10914 10914 10915 10916 10916 10918 10919 10921 10922 10923
10941 10938 10935 10932 10929 10926 10922 10920 10920 10921 10923 10924 10926 10927 10927 10928 10928 10929 10929 10929 10930 10929 10928 10928 10927 10925 10923 10921 10918 10915 10914 10913 10913 10912 10912 10913 10914 10915 10916 10918 10920 10921 10922
10943 10939 10936 10933 10929 10928 10926 10925 10924 10924 10926 10927 10928 10929 10930 10930 10930 10930 10930 10930 10929 10930 10929 10928 10927 10924 10922 10919 10915 10912 10909 10908 10908 10908 10908 10910 10912 10913 10915 10917 10919 10920 10921
10945 10942 10939 10937 10933 10932 10931 10930 10930 10930 10931 10932 10932 10933 10935 10935 10934 10933 10932 10932 10933 10933 10931 10930 10928 10925 10922 10918 10915 10911 10906 10903 10901 10902 10903 10905 10907 10909 10912 10915 10917 10919 10921
10948 10945 10942 10941 10938 10936 10934 10934 10934 10934 10935 10935 10936 10937 10938 10938 10937 10935 10934 10934 10936 10936 10935 10933 10930 10927 10923 10919 10913 10908 10902 10898 10896 10896 10898 10900 10903 10906 10909 10912 10915 10918 10920
10953 10948 10945 10945 10942 10940 10939 10937 10937 10936 10938 10938 10940 10942 10942 10943 10942 10941 10941 10941 10940 10939 10938 10936 10933 10928 10925 10920 10914 10905 10898 10895 10891 10891 10892 10896 10899 10902 10906 10910 10914 10916 10918
10957 10953 10949 10947 10944 10943 10942 10941 10940 10941 10942 10943 10946 10948 10949 10948 10947 10946 10947 10946 10945 10943 10941 10938 10934 10932 10928 10923 10916 10906 10899 10893 10889 10887 10887 10890 10894 10899 10904 10908 10911 10913 10916
10960 10958 10953 10951 10947 10946 10946 10945 10945 10946 10949 10951 10953 10954 10954 10953 10953 10952 10952 10951 10949 10947 10945 10942 10938 10935 10930 10924 10918 10910 10901 10895 10891 10888 10887 10889 10892 10897 10902 10906 10910 10913 10916
10964 10962 10957 10955 10952 10951 10951 10951 10951 10953 10955 10956 10959 10959 10959 10959 10957 10956 10956 10954 10952 10950 10947 10944 10941 10936 10932 10926 10921 10914 10906 10899 10897 10894 10891 10893 10895 10898 10901 10905 10909 10912 10915
10967 10965 10961 10959 10957 10955 10956 10957 10958 10960 10961 10963 10963 10964 10963 10963 10962 10962 10961 10957 10956 10954 10951 10948 10943 10939 10934 10931 10927 10920 10911 10905 10904 10901 10899 10897 10898 10901 10904 10907 10909 10912 10915
10971 10968 10965 10963 10962 10961 10963 10964 10965 10965 10966 10968 10969 10969 10968 10968 10968 10967 10965 10963 10961 10958 10954 10952 10947 10942 10938 10935 10932 10927 10921 10915 10910 10908 10906 10905 10905 10907 10908 10910 10912 10915 10917
10974 10972 10969 10967 10966 10968 10968 10968 10970 10972 10973 10973 10974 10974 10973 10972 10972 10970 10969 10968 10967 10964 10960 10956 10951 10946 10942 10939 10937 10934 10930 10924 10919 10915 10914 10913 10914 10914 10914 10913 10914 10918 10922
10978 10975 10973 10970 10970 10973 10973 10973 10975 10978 10978 10978 10979 10979 10977 10977 10977 10975 10974 10973 10971 10969 10965 10961 10957 10952 10948 10946 10944 10940 10937 10932 10928 10926 10923 10921 10921 10920 10921 10919 10920 10924 10927
10982 10979 10977 10975 10975 10977 10978 10979 10980 10981 10983 10983 10984 10983 10983 10982 10980 10980 10979 10977 10974 10973 10970 10965 10960 10957 10954 10951 10948 10945 10941 10938 10935 10935 10934 10932 10930 10929 10928 10928 10929 10931 10933
10986 10983 10981 10980 10980 10981 10983 10983 10985 10985 10987 10988 10988 10989 10988 10987 10985 10984 10983 10982 10980 10978 10974 10969 10966 10962 10960 10956 10953 10949 10945 10943 10943 10943 10942 10940 10939 10938 10938 10938 10938 10939 10941
10990 10987 10985 10985 10985 10985 10985 10987 10989 10989 10990 10992 10993 10993 10992 10991 10990 10988 10988 10987 10985 10983 10980 10976 10972 10967 10964 10960 10957 10953 10950 10948 10949 10949 10949 10947 10946 10945 10945 10945 10946 10946 10947
10993 10991 10989 10989 10988 10989 10989 10990 10992 10993 10994 10995 10995 10997 10995 10996 10995 10994 10993 10992 10989 10989 10986 10983 10977 10973 10970 10965 10961 10957 10956 10953 10953 10953 10953 10953 10951 10951 10951 10950 10950 10951 10951
10997 10994 10992 10993 10992 10992 10994 10994 10995 10996 10996 10997 10998 11000 10999 10999 11000 10999 10998 10998 10996 10993 10989 10986 10984 10979 10975 10970 10966 10965 10963 10959 10956 10954 10954 10955 10955 10955 10954 10954 10954 10954 10954
10998 10997 10995 10995 10995 10995 10997 10998 10998 10998 10999 11000 11000 11002 11003 11003 11004 11004 11003 11001 10999 10997 10995 10992 10988 10983 10980 10976 10975 10973 10970 10965 10960 10957 10955 10955 10956 10957 10957 10958 10958 10957 10958
11000 10999 10998 10996 10997 10997 10998 11000 11000 11001 11001 11003 11003 11003 11005 11005 11008 11006 11006 11005 11004 11002 11001 10997 10994 10992 10989 10985 10981 10978 10975 10970 10966 10961 10958 10957 10957 10958 10958 10959 10960 10960 10961
11000 10999 10999 10999 10998 10999 11000 11001 11002 11003 11002 11004 11005 11005 11008 11009 11009 11007 11007 11006 11006 11004 11002 11000 10998 10996 10994 10990 10986 10983 10980 10976 10972 10966 10962 10961 10960 10960 10960 10960 10960 10961 10961
11000 10999 10999 10999 10999 11001 11002 11004 11004 11004 11004 11005 11006 11007 11009 11009 11010 11009 11009 11009 11009 11008 11006 11004 11002 11001 10998 10994 10991 10989 10984 10981 10978 10973 10968 10966 10964 10962 10962 10960 10959 10959 10958
10999 10999 10998 11000 11000 11002 11003 11004 11005 11007 11007 11006 11007 11009 11009 11010 11011 11010 11011 11010 11011 11010 11009 11006 11004 11003 11002 10999 10997 10993 10989 10986 10983 10980 10976 10972 10968 10967 10964 10962 10960 10956 10954
10996 10997 10997 10998 11001 11002 11002 11004 11006 11007 11006 11007 11008 11009 11010 11010 11011 11012 11012 11012 11012 11012 11011 11010 11008 11006 11005 11003 11001 10997 10994 10991 10988 10986 10983 10978 10975 10970 10968 10967 10963 10958 10953
10993 10994 10996 10997 11000 11002 11003 11002 11005 11007 11007 11009 11009 11011 11012 11012 11012 11012 11013 11012 11012 11013 11012 11011 11010 11008 11006 11005 11004 11002 10999 10997 10994 10991 10988 10984 10980 10977 10975 10971 10967 10963 10959